Location: Torrington
(42.0650°N, 104.1810°W)
Time: 05:48:22
(UTC-06:00)

Amateur Radio Satellites - All Passes

Search period start: 19 September 2014 05:18
Search period end: 20 September 2014 05:18
Location: Torrington, 42.0650°N, 104.1810°W

Satellite Date Start Highest point End Downlink Frequencies (MHz)
Time Altitude Azimuth
AO-7 19 Sep 05:24:35 05:32:54 73° 106° (ESE) 05:41:09 29.400 - 29.500 MHz
Uosat F 19 Sep 05:25:10 05:30:13 80° 104° (ESE) 05:35:15 435.120 FM
OPAL 19 Sep 05:30:45 05:35:27 35° 261° (W) 05:40:13 ?
SO-50 19 Sep 05:44:28 05:46:57 14° 35° (NE) 05:49:26 436.795 FM
KITSAT 1 19 Sep 05:59:28 06:06:57 43° 250° (WSW) 06:14:23 435.175 FM
RS-15 19 Sep 06:09:49 06:20:33 56° 313° (NW) 06:31:17 29.354 - 29.394 USB, Beacon 29.352 USB
STRAND 1 19 Sep 06:10:48 06:15:22 35° 68° (ENE) 06:19:58 ?
JAS-2 19 Sep 06:24:34 06:30:22 48° 100° (E) 06:36:53 435.800 - 435.900 CW/SSB, 435.910 FM
ISS 19 Sep 06:51:30 06:53:41 16° 5° (N) 06:55:51 145.800 FM
Hamsat 19 Sep 06:55:11 06:59:28 85° 103° (ESE) 07:03:40 145.90 MHz
Uosat F 19 Sep 07:05:53 07:08:20 14° 301° (WNW) 07:10:48 435.120 FM
SO-67 19 Sep 07:13:32 07:15:41 16° 93° (E) 07:17:50 435.3500 MHz FM
AO-7 19 Sep 07:18:20 07:24:58 28° 305° (NW) 07:31:35 29.400 - 29.500 MHz
SO-50 19 Sep 07:23:32 07:28:21 72° 55° (NE) 07:33:13 436.795 FM
UOSAT-12 19 Sep 07:25:42 07:27:40 12° 33° (NNE) 07:29:38 437.025 FM, 437.400 FM
STRAND 1 19 Sep 07:50:14 07:54:34 28° 264° (W) 07:58:57 ?
JAS-2 19 Sep 08:10:15 08:15:16 29° 294° (WNW) 08:20:47 435.800 - 435.900 CW/SSB, 435.910 FM
MaSat-1 19 Sep 08:23:20 08:28:07 47° 110° (ESE) 08:32:53 437.345 MHz
RS-15 19 Sep 08:27:42 08:36:04 24° 344° (NNW) 08:44:33 29.354 - 29.394 USB, Beacon 29.352 USB
ISS 19 Sep 08:28:04 08:31:08 33° 25° (NNE) 08:34:12 145.800 FM
HO-68 19 Sep 08:41:31 08:46:17 19° 90° (E) 08:51:02 435.675 MHz FM
SO-67 19 Sep 08:45:45 08:48:47 28° 289° (WNW) 08:51:47 435.3500 MHz FM
UOSAT-12 19 Sep 09:04:05 09:08:48 62° 54° (NE) 09:13:25 437.025 FM, 437.400 FM
SO-50 19 Sep 09:05:45 09:08:22 15° 252° (WSW) 09:10:59 436.795 FM
MaSat-1 19 Sep 10:00:58 10:05:06 25° 307° (NW) 10:09:09 437.345 MHz
Oscar 11 19 Sep 10:02:57 10:06:39 27° 95° (E) 10:10:19 145.825 FM, Beacon 2401.500 USB
ISS 19 Sep 10:04:46 10:07:52 36° 222° (SW) 10:10:57 145.800 FM
UKube-1 19 Sep 10:18:53 10:23:09 53° 101° (E) 10:27:25 145.840 MHz, 145.915 MHz
HO-68 19 Sep 10:27:32 10:34:44 81° 288° (WNW) 10:41:54 435.675 MHz FM
RS-15 19 Sep 10:44:53 10:53:36 26° 20° (NNE) 11:02:28 29.354 - 29.394 USB, Beacon 29.352 USB
UOSAT-12 19 Sep 10:45:34 10:48:26 16° 251° (WSW) 10:51:16 437.025 FM, 437.400 FM
Sapphire 19 Sep 11:21:45 11:24:58 16° 104° (ESE) 11:28:12 437.095 MHz 1200 baud AX-25 AFSK
FUNcube-1 19 Sep 11:27:20 11:32:00 89° 284° (WNW) 11:36:35 145.950 - 145.970 MHz USB
Oscar 11 19 Sep 11:39:04 11:42:46 28° 292° (WNW) 11:46:27 145.825 FM, Beacon 2401.500 USB
PCSat 19 Sep 11:47:06 11:51:44 30° 109° (ESE) 11:56:23 145.825 MHz
UKube-1 19 Sep 11:56:22 11:58:55 16° 297° (WNW) 12:01:29 145.840 MHz, 145.915 MHz
Oscar 16 19 Sep 12:00:33 12:02:17 12° 57° (ENE) 12:04:02 437.025 USB, Beacon 2401.1428
JAS-1B 19 Sep 12:13:10 12:17:27 16° 56° (NE) 12:21:24 435.800 - 435.900 CW/SSB
HO-68 19 Sep 12:17:05 12:21:21 17° 308° (NW) 12:25:38 435.675 MHz FM
ITAMSAT 1 19 Sep 12:43:09 12:45:08 12° 58° (ENE) 12:47:08 435.822 SSB
Uribyol 2 19 Sep 12:46:41 12:49:19 14° 59° (ENE) 12:51:57 436.500 FM
Oscar 19 19 Sep 12:57:25 13:02:08 36° 68° (ENE) 13:06:52 437.125 CW, 437.150 USB
RS-15 19 Sep 12:57:49 13:08:49 62° 50° (NE) 13:20:11 29.354 - 29.394 USB, Beacon 29.352 USB
Sapphire 19 Sep 13:02:22 13:07:45 71° 301° (WNW) 13:13:11 437.095 MHz 1200 baud AX-25 AFSK
FUNcube-1 19 Sep 13:06:52 13:07:37 10° 301° (WNW) 13:08:23 145.950 - 145.970 MHz USB
AO-27 19 Sep 13:15:35 13:19:41 24° 64° (ENE) 13:23:48 436.795 MHz FM
PCSat 19 Sep 13:29:53 13:34:59 41° 307° (NW) 13:40:07 145.825 MHz
Oscar 16 19 Sep 13:35:37 13:40:48 83° 75° (ENE) 13:46:02 437.025 USB, Beacon 2401.1428
AO-Echo 19 Sep 13:50:51 13:55:28 53° 72° (ENE) 14:00:02 ?
JAS-1B 19 Sep 13:58:33 14:07:11 75° 73° (ENE) 14:14:23 435.800 - 435.900 CW/SSB
Gurwin Techsat 1B 19 Sep 14:06:24 14:11:06 33° 67° (ENE) 14:15:49 435.225 FM
ITAMSAT 1 19 Sep 14:18:40 14:23:50 88° 75° (ENE) 14:29:03 435.822 SSB
Uribyol 2 19 Sep 14:22:56 14:28:05 81° 256° (WSW) 14:33:19 436.500 FM
AO-7 19 Sep 14:34:02 14:40:13 24° 52° (NE) 14:46:24 29.400 - 29.500 MHz
Oscar 19 19 Sep 14:37:04 14:41:30 28° 265° (W) 14:45:59 437.125 CW, 437.150 USB
TMSAT-1 19 Sep 14:43:03 14:48:09 52° 71° (ENE) 14:53:17 436.925 FM
Sapphire 19 Sep 14:49:19 14:52:11 14° 322° (NW) 14:55:04 437.095 MHz 1200 baud AX-25 AFSK
AO-27 19 Sep 14:54:02 14:58:56 43° 261° (W) 15:03:53 436.795 MHz FM
Uosat F 19 Sep 15:02:57 15:05:42 15° 60° (ENE) 15:08:27 435.120 FM
RS-15 19 Sep 15:10:41 15:20:44 41° 252° (WSW) 15:31:11 29.354 - 29.394 USB, Beacon 29.352 USB
Oscar 16 19 Sep 15:18:58 15:20:47 12° 272° (W) 15:22:37 437.025 USB, Beacon 2401.1428
AO-Echo 19 Sep 15:31:41 15:34:34 16° 268° (W) 15:37:26 ?
Gurwin Techsat 1B 19 Sep 15:46:20 15:51:02 32° 264° (W) 15:55:46 435.225 FM
JAS-1B 19 Sep 15:51:42 15:58:06 23° 267° (W) 16:03:50 435.800 - 435.900 CW/SSB
ITAMSAT 1 19 Sep 16:02:45 16:04:00 11° 272° (W) 16:05:16 435.822 SSB
Saudisat 1A 19 Sep 16:09:37 16:10:22 10° 107° (ESE) 16:11:07 436.775 MHz
AO-7 19 Sep 16:23:44 16:32:04 85° 252° (WSW) 16:40:25 29.400 - 29.500 MHz
TMSAT-1 19 Sep 16:24:33 16:28:22 20° 268° (W) 16:32:13 436.925 FM
Uosat F 19 Sep 16:38:54 16:43:53 72° 257° (WSW) 16:48:54 435.120 FM
JAS-2 19 Sep 16:40:15 16:43:39 18° 61° (ENE) 16:47:04 435.800 - 435.900 CW/SSB, 435.910 FM
MaSat-1 19 Sep 16:42:01 16:42:42 10° 42° (NE) 16:43:23 437.345 MHz
OPAL 19 Sep 17:39:43 17:44:50 59° 103° (ESE) 17:49:51 ?
Saudisat 1A 19 Sep 17:44:52 17:49:16 82° 304° (WNW) 17:53:42 436.775 MHz
Hamsat 19 Sep 17:48:29 17:52:48 63° 75° (ENE) 17:57:07 145.90 MHz
MaSat-1 19 Sep 18:16:21 18:20:13 79° 246° (WSW) 18:23:29 437.345 MHz
AO-7 19 Sep 18:21:05 18:25:58 17° 271° (W) 18:30:52 29.400 - 29.500 MHz
JAS-2 19 Sep 18:23:10 18:28:21 57° 259° (W) 18:33:27 435.800 - 435.900 CW/SSB, 435.910 FM
STRAND 1 19 Sep 18:23:30 18:24:41 11° 88° (E) 18:25:51 ?
KITSAT 1 19 Sep 18:33:49 18:40:22 28° 105° (ESE) 18:46:55 435.175 FM
HO-68 19 Sep 19:12:15 19:16:26 17° 52° (NE) 19:20:37 435.675 MHz FM
SO-67 19 Sep 19:18:21 19:21:48 88° 258° (WSW) 19:25:16 435.3500 MHz FM
OPAL 19 Sep 19:19:39 19:23:14 19° 301° (WNW) 19:26:47 ?
Saudisat 1A 19 Sep 19:27:18 19:29:33 14° 323° (NW) 19:31:48 436.775 MHz
Hamsat 19 Sep 19:27:30 19:29:09 12° 271° (W) 19:30:48 145.90 MHz
STRAND 1 19 Sep 19:59:22 20:04:31 88° 285° (WNW) 20:09:40 ?
Sapphire 19 Sep 20:07:32 20:11:19 19° 42° (NE) 20:15:04 437.095 MHz 1200 baud AX-25 AFSK
KITSAT 1 19 Sep 20:27:06 20:35:08 68° 305° (NW) 20:43:13 435.175 FM
PCSat 19 Sep 20:34:03 20:38:47 29° 49° (NE) 20:43:28 145.825 MHz
HO-68 19 Sep 20:55:55 21:03:02 80° 72° (ENE) 21:10:13 435.675 MHz FM
Oscar 11 19 Sep 20:58:40 21:02:08 23° 67° (ENE) 21:05:36 145.825 FM, Beacon 2401.500 USB
UKube-1 19 Sep 21:14:42 21:18:52 49° 72° (ENE) 21:23:03 145.840 MHz, 145.915 MHz
SO-50 19 Sep 21:40:16 21:43:30 20° 111° (ESE) 21:46:47 436.795 FM
STRAND 1 19 Sep 21:40:59 21:42:56 12° 302° (WNW) 21:44:53 ?
Sapphire 19 Sep 21:49:58 21:55:25 82° 242° (WSW) 22:00:50 437.095 MHz 1200 baud AX-25 AFSK
PCSat 19 Sep 22:17:13 22:22:22 45° 247° (WSW) 22:27:29 145.825 MHz
FUNcube-1 19 Sep 22:23:52 22:28:15 77° 76° (ENE) 22:32:47 145.950 - 145.970 MHz USB
KITSAT 1 19 Sep 22:26:22 22:32:11 21° 329° (NNW) 22:38:02 435.175 FM
Oscar 11 19 Sep 22:34:13 22:38:09 33° 263° (W) 22:42:06 145.825 FM, Beacon 2401.500 USB
HO-68 19 Sep 22:46:44 22:51:29 19° 269° (W) 22:56:15 435.675 MHz FM
UKube-1 19 Sep 22:52:48 22:55:20 15° 268° (W) 22:57:53 145.840 MHz, 145.915 MHz
UOSAT-12 19 Sep 23:17:22 23:20:15 17° 109° (ESE) 23:23:10 437.025 FM, 437.400 FM
SO-50 19 Sep 23:19:21 23:23:41 47° 309° (NW) 23:28:10 436.795 FM
Sapphire 19 Sep 23:36:59 23:37:56 10° 259° (W) 23:38:52 437.095 MHz 1200 baud AX-25 AFSK
KITSAT 1 20 Sep 00:28:48 00:31:29 12° 360° (N) 00:34:09 435.175 FM
Saudisat 1A 20 Sep 00:33:00 00:35:26 14° 38° (NE) 00:37:51 436.775 MHz
UOSAT-12 20 Sep 00:55:20 00:59:54 60° 307° (NW) 01:04:35 437.025 FM, 437.400 FM
Oscar 19 20 Sep 01:10:45 01:12:31 12° 88° (E) 01:14:18 437.125 CW, 437.150 USB
JAS-1B 20 Sep 01:46:03 01:48:46 13° 89° (E) 01:51:28 435.800 - 435.900 CW/SSB
Oscar 16 20 Sep 01:47:27 01:51:54 28° 95° (E) 01:56:19 437.025 USB, Beacon 2401.1428
AO-Echo 20 Sep 01:58:21 02:01:26 17° 92° (E) 02:04:34 ?
Saudisat 1A 20 Sep 02:11:13 02:15:40 88° 57° (ENE) 02:20:04 436.775 MHz
Gurwin Techsat 1B 20 Sep 02:23:59 02:26:02 12° 88° (E) 02:28:05 435.225 FM
KITSAT 1 20 Sep 02:25:03 02:30:48 21° 30° (NNE) 02:36:32 435.175 FM
ITAMSAT 1 20 Sep 02:31:31 02:36:06 30° 96° (E) 02:40:40 435.822 SSB
Uribyol 2 20 Sep 02:35:30 02:40:17 35° 97° (E) 02:45:02 436.500 FM
UOSAT-12 20 Sep 02:39:13 02:41:03 12° 327° (NNW) 02:42:53 437.025 FM, 437.400 FM
ISS 20 Sep 02:46:55 02:50:10 56° 141° (SE) 02:53:27 145.800 FM
Oscar 19 20 Sep 02:47:18 02:52:30 83° 285° (WNW) 02:57:38 437.125 CW, 437.150 USB
TMSAT-1 20 Sep 02:59:17 03:03:08 20° 92° (E) 03:06:58 436.925 FM
AO-27 20 Sep 03:06:14 03:11:26 65° 102° (ESE) 03:16:37 436.795 MHz FM
OPAL 20 Sep 03:18:49 03:21:53 16° 58° (ENE) 03:24:58 ?
RS-15 20 Sep 03:23:20 03:32:47 34° 106° (ESE) 03:42:05 29.354 - 29.394 USB, Beacon 29.352 USB
Oscar 16 20 Sep 03:26:35 03:31:17 36° 292° (WNW) 03:35:57 437.025 USB, Beacon 2401.1428
PANSAT 20 Sep 03:33:28 03:34:20 11° 182° (S) 03:35:12 not established
JAS-1B 20 Sep 03:34:27 03:40:12 72° 287° (WNW) 03:45:54 435.800 - 435.900 CW/SSB
AO-Echo 20 Sep 03:35:47 03:40:31 55° 287° (WNW) 03:45:22 ?
Gurwin Techsat 1B 20 Sep 04:01:18 04:06:39 83° 285° (WNW) 04:11:57 435.225 FM
ITAMSAT 1 20 Sep 04:10:55 04:15:35 34° 293° (WNW) 04:20:15 435.822 SSB
Uribyol 2 20 Sep 04:15:08 04:19:38 30° 294° (WNW) 04:24:08 436.500 FM
KITSAT 1 20 Sep 04:19:51 04:27:55 66° 55° (NE) 04:35:54 435.175 FM
ISS 20 Sep 04:24:11 04:27:04 26° 339° (NNW) 04:29:57 145.800 FM
AO-7 20 Sep 04:25:24 04:32:36 32° 96° (E) 04:39:45 29.400 - 29.500 MHz
Oscar 19 20 Sep 04:29:24 04:30:59 11° 303° (WNW) 04:32:35 437.125 CW, 437.150 USB
TMSAT-1 20 Sep 04:38:12 04:43:21 52° 289° (WNW) 04:48:29 436.925 FM
Uosat F 20 Sep 04:46:26 04:50:59 33° 97° (E) 04:55:30 435.120 FM
AO-27 20 Sep 04:47:05 04:50:25 18° 299° (WNW) 04:53:46 436.795 MHz FM
OPAL 20 Sep 04:54:57 05:00:07 75° 255° (WSW) 05:05:22 ?
